sat.trackr.live / text

‹ back to catalog

ONEWEB-0150

NORAD 48047 · 2021-025F

PAYLOAD ACTIVE UNKNOWN

§ Identity

Operator
Country
UK
Launch date
2021-03-25
Launch site
VOSTO
Launch vehicle
Mass (kg)
RCS (m²)

Purposes: comms

External: N2YO · Heavens-Above · Gunter

§ Orbital elements

Epoch: 2026-09-18T21:03:40.752864Z

Period
109.63 min
Inclination
87.8926°
Eccentricity
0.0001936
Mean motion
13.13470225 rev/d
Perigee alt
1,208.3 km
Apogee alt
1,211.2 km
Semi-major
7,587.9 km
B*
8.2387e-4
RAAN
301.5804°
Arg perigee
101.9814°
Mean anomaly
258.1532°
Rev number
26,584

§ Raw data

ONEWEB-01501 48047U 21025F   26261.87755501  .00000314  00000+0  82387-3 0  99962 48047  87.8926 301.5804 0001936 101.9814 258.1532 13.13470225265848

JSON: /api/v1/satellites/48047 · /tle

For live sub-satellite position, see the globe view (requires WebGL).

§ Visibility from observer

Set your observer location to see the next 7 days of passes ≥ 10°. The values pass through the URL so the page stays shareable.

No JS? Fill the form by hand. The geolocation button needs JavaScript.